Hourly Data Report for October 04, 2013

All times are specified in Local Standard Time (LST). Add 1 hour to adjust for Daylight Saving Time where and when it is observed.

CHARLOTTETOWN A
PRINCE EDWARD ISLAND

46°17'21.000" N
63°07'09.000" W
48.50 m
8300301
71706
YYG

Download Data

Hourly Data (October 2013)
Hourly Data Report for October 4, 2013
Temp Definition
°C
Dew Point Temp Definition
°C
Rel Hum Definition
%
Wind Dir Definition
10's deg

Wind Spd Definition
km/h
Visibility Definition
km
Stn Press Definition
kPa
Hmdx Definition


Wind Chill Definition


Weather Definition


TIME
00:00 Legend Double Dagger 12.5 5.7 63 28 14 24.1 100.62     LegendNANA
01:00 Legend Double Dagger 10.8 6.0 72 26 14 24.1 100.63     LegendNANA
02:00 Legend Double Dagger 10.9 6.1 72 27 18 24.1 100.63     Clear
03:00 Legend Double Dagger 9.8 6.0 77 26 14 24.1 100.59     LegendNANA
04:00 Legend Double Dagger 10.0 6.6 79 27 13 24.1 100.56     LegendNANA
05:00 Legend Double Dagger 10.5 6.7 77 26 11 24.1 100.54     Mostly Cloudy
06:00 Legend Double Dagger 10.6 7.0 78 27 14 24.1 100.56     LegendNANA
07:00 Legend Double Dagger 10.9 6.9 76 28 17 24.1 100.61     LegendNANA
08:00 Legend Double Dagger 12.1 6.8 70 29 18 24.1 100.66     Mainly Clear
09:00 Legend Double Dagger 12.7 5.4 61 28 28 24.1 100.65     LegendNANA
10:00 Legend Double Dagger 13.0 4.2 55 30 22 24.1 100.66     LegendNANA
11:00 Legend Double Dagger 13.2 3.4 51 31 26 24.1 100.64     Mainly Clear
12:00 Legend Double Dagger 13.1 3.8 53 32 26 24.1 100.64     LegendNANA
13:00 Legend Double Dagger 12.7 3.2 52 32 32 24.1 100.63     LegendNANA
14:00 Legend Double Dagger 13.3 3.4 51 33 26 24.1 100.63     Mainly Clear
15:00 Legend Double Dagger 13.1 4.1 54 33 23 24.1 100.66     LegendNANA
16:00 Legend Double Dagger 12.9 3.6 53 32 26 24.1 100.72     LegendNANA
17:00 Legend Double Dagger 11.9 4.2 59 32 15 24.1 100.79     Mainly Clear
18:00 Legend Double Dagger 10.3 4.5 67 30 11 24.1 100.80     LegendNANA
19:00 Legend Double Dagger 9.9 4.1 67 30 16 24.1 100.87     LegendNANA
20:00 Legend Double Dagger 8.8 4.1 72 31 8 24.1 100.90     Mainly Clear
21:00 Legend Double Dagger 8.9 4.4 73 30 9 24.1 100.94     LegendNANA
22:00 Legend Double Dagger 9.0 5.6 79 32 11 24.1 100.96     LegendNANA
23:00 Legend Double Dagger 8.6 5.9 83 30 6 24.1 100.97     Mainly Clear

Notes on Data Quality.

Legend

  • E = Estimated
  • M = Missing
  • NA = Not Available
  • ‡ = Partner data that is not subject to review by the National Climate Archives
Date modified: